Location: Poughquag
(41.6090°N, 73.6820°W)
Time: 09:32:55
(UTC-05:00)

SR - Pass Details

Date: 14 December 2023
Orbit: 574 x 868 km, 66.7° (Epoch: 25 February)

Event Time Altitude Azimuth Distance (km) Brightness Sun altitude
Rises 17:41:11 0° 331° (NNW) 3,438 ? -13.7°
Reaches altitude 10° 17:43:45 10° 333° (NNW) 2,477 ? -14.2°
Maximum altitude 17:49:30 75° 59° (ENE) 843 ? -15.2°
Drops below altitude 10° 17:54:49 10° 144° (SE) 2,301 ? -16.1°
Sets 17:57:07 0° 146° (SSE) 3,178 ? -16.6°
